Portada
METAR-TAF:

METAR-TAF

Aeropuertos :

Millinocket Municipal Airport

Millinocket, Maine, Estados Unidos

latitud: 45-38-52N, longitud: 068-41-31W, altitud: 124 m

Observación

El informe se hizo hace 58 minutos, a las 15:53 UTC
Viento 5 kt del oeste-noroeste
Temperatura -6°C
Humedad 58%
Presión 1034 hPa
Visibilidad: 16.1 km
Cielo despejado

METAR: KMLT 151553Z AUTO 29005KT 10SM CLR M06/M13 A3054 RMK AO2 SLP356 T10611133

Hora: 11:51 (16:51 UTC)


TAF: falta

Observaciones y pronósticos meteorológicos de más de 4000 aeropuertos (mensajes METAR y TAF).

Los puntos amarillos y rojos representan las estaciones disponibles.

Ponga el ratón en el punto deseado para ver el nombre de la estación.

Haga clic para ver las observaciones y los pronósticos meteorológicos.

Para cambiar el mapa : haga clic en los botones verdes con una cruz de color negro para hacer un zoom, en el botón verde con un guión para alejar o en las flechas verdes para mapas adyacentes.


METAR-TAF: